Time,TemperatureF,DewpointF,PressureIn,WindDirection,WindDirectionDegrees,WindSpeedMPH,WindSpeedGustMPH,Humidity,HourlyPrecipIn,Conditions,Clouds,dailyrainin,SolarRadiationWatts/m^2,SoftwareType,DateUTC
2013-04-17 00:00:00,72.0,66.2,-100.00,SW,225,1.0,2.0,82,0.00,,,0.00,995.0,meteohub,2013-04-17 10:00:00,
2013-04-17 00:05:00,72.0,66.2,-100.00,SW,225,1.0,2.0,82,0.00,,,0.00,995.0,meteohub,2013-04-17 10:05:00,
2013-04-17 00:10:00,72.5,66.7,-100.00,East,90,2.0,2.0,82,0.00,,,0.00,995.0,meteohub,2013-04-17 10:10:00,
2013-04-17 00:30:00,71.6,66.6,-100.00,SW,225,2.0,4.0,84,0.00,,,0.00,995.0,meteohub,2013-04-17 10:30:00,
2013-04-17 00:36:00,71.4,66.4,-100.00,SW,225,1.0,4.0,84,0.00,,,0.00,995.0,meteohub,2013-04-17 10:36:00,
2013-04-17 00:41:00,71.2,66.2,-100.00,SW,225,2.0,4.0,84,0.00,,,0.00,995.0,meteohub,2013-04-17 10:41:00,
2013-04-17 00:46:00,70.9,66.2,-100.00,SW,225,1.0,2.0,85,0.00,,,0.00,995.0,meteohub,2013-04-17 10:46:00,
2013-04-17 00:51:00,70.5,66.2,-100.00,SW,225,2.0,2.0,86,0.00,,,0.00,995.0,meteohub,2013-04-17 10:51:00,
2013-04-17 00:56:00,70.5,66.2,-100.00,SW,225,1.0,2.0,86,0.00,,,0.00,995.0,meteohub,2013-04-17 10:56:00,
2013-04-17 01:01:00,70.5,66.2,-100.00,SW,225,2.0,2.0,86,0.00,,,0.00,995.0,meteohub,2013-04-17 11:01:00,
2013-04-17 01:07:00,70.9,66.6,-100.00,SW,225,2.0,2.0,86,0.00,,,0.00,958.0,meteohub,2013-04-17 11:07:00,
2013-04-17 01:12:00,71.1,66.7,-100.00,SW,225,1.0,2.0,86,0.00,,,0.00,958.0,meteohub,2013-04-17 11:12:00,
2013-04-17 01:17:00,71.1,66.4,-100.00,SW,225,2.0,2.0,85,0.00,,,0.00,958.0,meteohub,2013-04-17 11:17:00,
2013-04-17 01:22:00,70.7,66.0,-100.00,SW,225,2.0,2.0,85,0.00,,,0.00,958.0,meteohub,2013-04-17 11:22:00,
2013-04-17 01:27:00,70.5,65.8,-100.00,SW,225,2.0,2.0,85,0.00,,,0.00,958.0,meteohub,2013-04-17 11:27:00,
2013-04-17 01:32:00,70.7,66.0,-100.00,SW,225,2.0,2.0,85,0.00,,,0.00,958.0,meteohub,2013-04-17 11:32:00,
2013-04-17 01:37:00,70.3,65.7,-100.00,SW,225,1.0,2.0,85,0.00,,,0.00,958.0,meteohub,2013-04-17 11:37:00,
2013-04-17 01:42:00,70.2,65.5,-100.00,SW,225,2.0,2.0,85,0.00,,,0.00,958.0,meteohub,2013-04-17 11:42:00,
2013-04-17 01:47:00,69.8,65.1,-100.00,SW,225,2.0,2.0,85,0.00,,,0.00,958.0,meteohub,2013-04-17 11:47:00,
2013-04-17 01:52:00,69.6,65.3,-100.00,SW,225,2.0,2.0,86,0.00,,,0.00,958.0,meteohub,2013-04-17 11:52:00,
2013-04-17 01:57:00,69.8,65.5,-100.00,SW,225,2.0,2.0,86,0.00,,,0.00,958.0,meteohub,2013-04-17 11:57:00,
2013-04-17 02:02:00,70.0,65.7,-100.00,SW,225,2.0,2.0,86,0.00,,,0.00,958.0,meteohub,2013-04-17 12:02:00,
2013-04-17 02:07:00,70.0,66.0,-100.00,SW,225,2.0,2.0,87,0.00,,,0.00,958.0,meteohub,2013-04-17 12:07:00,
2013-04-17 02:12:00,70.0,65.7,-100.00,SW,225,2.0,2.0,86,0.00,,,0.00,958.0,meteohub,2013-04-17 12:12:00,
2013-04-17 02:17:00,70.0,65.7,-100.00,SW,225,2.0,2.0,86,0.00,,,0.00,958.0,meteohub,2013-04-17 12:17:00,
2013-04-17 02:22:00,69.6,65.3,-100.00,SW,225,1.0,2.0,86,0.00,,,0.00,958.0,meteohub,2013-04-17 12:22:00,
2013-04-17 02:27:00,69.4,65.1,-100.00,SW,225,2.0,2.0,86,0.00,,,0.00,958.0,meteohub,2013-04-17 12:27:00,
2013-04-17 02:32:00,69.4,65.1,-100.00,SW,225,2.0,2.0,86,0.00,,,0.00,958.0,meteohub,2013-04-17 12:32:00,
2013-04-17 02:37:00,69.6,65.3,-100.00,SW,225,2.0,2.0,86,0.00,,,0.00,958.0,meteohub,2013-04-17 12:37:00,
2013-04-17 02:42:00,70.0,65.7,-100.00,SW,225,2.0,2.0,86,0.00,,,0.00,958.0,meteohub,2013-04-17 12:42:00,
2013-04-17 02:47:00,70.2,65.5,-100.00,SW,225,2.0,2.0,85,0.00,,,0.00,958.0,meteohub,2013-04-17 12:47:00,
2013-04-17 02:52:00,70.2,65.5,-100.00,SW,225,2.0,2.0,85,0.00,,,0.00,958.0,meteohub,2013-04-17 12:52:00,
2013-04-17 02:57:00,70.2,65.1,-100.00,West,270,2.0,3.0,84,0.00,,,0.00,958.0,meteohub,2013-04-17 12:57:00,
2013-04-17 03:02:00,70.0,64.9,-100.00,SW,225,2.0,3.0,84,0.00,,,0.00,958.0,meteohub,2013-04-17 13:02:00,
2013-04-17 03:07:00,70.0,65.3,-100.00,SW,225,2.0,2.0,85,0.00,,,0.00,958.0,meteohub,2013-04-17 13:07:00,
2013-04-17 03:12:00,70.2,65.5,-100.00,SW,225,2.0,2.0,85,0.00,,,0.00,958.0,meteohub,2013-04-17 13:12:00,
2013-04-17 03:17:00,70.3,65.7,-100.00,SW,225,2.0,2.0,85,0.00,,,0.00,958.0,meteohub,2013-04-17 13:17:00,
2013-04-17 03:22:00,70.2,65.1,-100.00,SW,225,2.0,2.0,84,0.00,,,0.00,958.0,meteohub,2013-04-17 13:22:00,
2013-04-17 03:27:00,70.2,65.1,-100.00,SW,225,2.0,2.0,84,0.00,,,0.00,958.0,meteohub,2013-04-17 13:27:00,
2013-04-17 03:32:00,70.2,65.1,-100.00,SW,225,2.0,2.0,84,0.00,,,0.00,958.0,meteohub,2013-04-17 13:32:00,
2013-04-17 03:37:00,70.2,65.1,-100.00,SW,225,2.0,2.0,84,0.00,,,0.00,958.0,meteohub,2013-04-17 13:37:00,
2013-04-17 03:42:00,70.0,64.9,-100.00,SW,225,2.0,2.0,84,0.00,,,0.00,958.0,meteohub,2013-04-17 13:42:00,
2013-04-17 03:47:00,70.0,64.9,-100.00,SW,225,2.0,2.0,84,0.00,,,0.00,958.0,meteohub,2013-04-17 13:47:00,
2013-04-17 03:52:00,70.0,64.9,-100.00,SW,225,2.0,2.0,84,0.00,,,0.00,958.0,meteohub,2013-04-17 13:52:00,
2013-04-17 03:57:00,70.2,65.5,-100.00,SW,225,1.0,2.0,85,0.00,,,0.00,958.0,meteohub,2013-04-17 13:57:00,
2013-04-17 04:02:00,70.2,65.1,-100.00,West,270,2.0,2.0,84,0.00,,,0.00,958.0,meteohub,2013-04-17 14:02:00,
2013-04-17 04:07:00,70.0,64.9,-100.00,SW,225,1.0,2.0,84,0.00,,,0.00,958.0,meteohub,2013-04-17 14:07:00,
2013-04-17 04:12:00,69.8,64.8,-100.00,SW,225,1.0,2.0,84,0.00,,,0.00,958.0,meteohub,2013-04-17 14:12:00,
2013-04-17 04:17:00,69.8,64.8,-100.00,SW,225,2.0,2.0,84,0.00,,,0.00,958.0,meteohub,2013-04-17 14:17:00,
2013-04-17 04:22:00,69.8,64.8,-100.00,SW,225,2.0,2.0,84,0.00,,,0.00,958.0,meteohub,2013-04-17 14:22:00,
2013-04-17 04:27:00,69.8,64.8,-100.00,SW,225,2.0,2.0,84,0.00,,,0.00,958.0,meteohub,2013-04-17 14:27:00,
2013-04-17 04:32:00,70.0,64.9,-100.00,SW,225,2.0,2.0,84,0.00,,,0.00,958.0,meteohub,2013-04-17 14:32:00,
2013-04-17 04:37:00,70.0,64.9,-100.00,SW,225,2.0,2.0,84,0.00,,,0.00,958.0,meteohub,2013-04-17 14:37:00,
2013-04-17 04:42:00,70.2,65.1,-100.00,SW,225,2.0,2.0,84,0.00,,,0.00,958.0,meteohub,2013-04-17 14:42:00,
2013-04-17 04:47:00,70.2,65.1,-100.00,SW,225,2.0,2.0,84,0.00,,,0.00,958.0,meteohub,2013-04-17 14:47:00,
2013-04-17 04:52:00,70.3,65.3,-100.00,SW,225,2.0,2.0,84,0.00,,,0.00,958.0,meteohub,2013-04-17 14:52:00,
2013-04-17 04:57:00,70.3,64.9,-100.00,SW,225,2.0,2.0,83,0.00,,,0.00,958.0,meteohub,2013-04-17 14:57:00,
2013-04-17 05:02:00,70.3,64.9,-100.00,SW,225,2.0,2.0,83,0.00,,,0.00,958.0,meteohub,2013-04-17 15:02:00,
2013-04-17 05:07:00,70.0,64.9,-100.00,SW,225,1.0,2.0,84,0.00,,,0.00,958.0,meteohub,2013-04-17 15:07:00,
2013-04-17 05:12:00,69.8,64.8,-100.00,SW,225,2.0,2.0,84,0.00,,,0.00,958.0,meteohub,2013-04-17 15:12:00,
2013-04-17 05:18:00,69.6,64.6,-100.00,SW,225,1.0,2.0,84,0.00,,,0.00,958.0,meteohub,2013-04-17 15:18:00,
2013-04-17 05:23:00,69.6,64.9,-100.00,SW,225,2.0,2.0,85,0.00,,,0.00,958.0,meteohub,2013-04-17 15:23:00,
2013-04-17 05:28:00,69.6,64.9,-100.00,SW,225,2.0,2.0,85,0.00,,,0.00,958.0,meteohub,2013-04-17 15:28:00,
2013-04-17 05:33:00,69.8,65.1,-100.00,SW,225,2.0,2.0,85,0.00,,,0.00,995.0,meteohub,2013-04-17 15:33:00,
2013-04-17 05:38:00,69.6,64.9,-100.00,SW,225,2.0,2.0,85,0.00,,,0.00,995.0,meteohub,2013-04-17 15:38:00,
2013-04-17 05:43:00,69.6,64.6,-100.00,SW,225,2.0,3.0,84,0.00,,,0.00,995.0,meteohub,2013-04-17 15:43:00,
2013-04-17 05:49:00,69.3,64.2,-100.00,SW,225,2.0,3.0,84,0.00,,,0.00,995.0,meteohub,2013-04-17 15:49:00,
2013-04-17 05:54:00,69.3,64.2,-100.00,SW,225,2.0,2.0,84,0.00,,,0.00,995.0,meteohub,2013-04-17 15:54:00,
2013-04-17 05:59:00,69.1,64.0,-100.00,SW,225,3.0,3.0,84,0.00,,,0.00,995.0,meteohub,2013-04-17 15:59:00,
2013-04-17 06:04:00,68.9,64.2,-100.00,SW,225,2.0,3.0,85,0.00,,,0.00,995.0,meteohub,2013-04-17 16:04:00,
2013-04-17 06:09:00,69.1,64.4,-100.00,West,270,0.0,3.0,85,0.00,,,0.00,995.0,meteohub,2013-04-17 16:09:00,
2013-04-17 06:15:00,68.9,64.2,-100.00,SW,225,2.0,3.0,85,0.00,,,0.00,995.0,meteohub,2013-04-17 16:15:00,
2013-04-17 06:20:00,69.1,64.8,-100.00,SW,225,2.0,2.0,86,0.00,,,0.00,995.0,meteohub,2013-04-17 16:20:00,
2013-04-17 06:25:00,69.6,65.7,-100.00,SW,225,2.0,2.0,87,0.00,,,0.00,995.0,meteohub,2013-04-17 16:25:00,
2013-04-17 06:30:00,70.0,66.0,-100.00,SW,225,2.0,2.0,87,0.00,,,0.00,995.0,meteohub,2013-04-17 16:30:00,
2013-04-17 06:35:00,70.2,66.0,-100.00,SW,225,2.0,2.0,87,0.00,,,0.00,995.0,meteohub,2013-04-17 16:35:00,
2013-04-17 06:41:00,70.2,65.8,-100.00,SW,225,2.0,2.0,86,0.00,,,0.00,995.0,meteohub,2013-04-17 16:41:00,
2013-04-17 06:46:00,70.2,65.8,-100.00,SW,225,2.0,2.0,86,0.00,,,0.00,995.0,meteohub,2013-04-17 16:46:00,
2013-04-17 06:51:00,70.2,65.8,-100.00,SW,225,2.0,2.0,86,0.00,,,0.00,995.0,meteohub,2013-04-17 16:51:00,
2013-04-17 06:56:00,70.3,66.2,-100.00,SW,225,1.0,2.0,87,0.00,,,0.00,995.0,meteohub,2013-04-17 16:56:00,
2013-04-17 07:01:00,70.5,66.4,-100.00,SW,225,2.0,2.0,87,0.00,,,0.00,995.0,meteohub,2013-04-17 17:01:00,
2013-04-17 07:06:00,70.7,66.4,-100.00,SW,225,0.0,2.0,86,0.00,,,0.00,995.0,meteohub,2013-04-17 17:06:00,
2013-04-17 07:11:00,71.1,66.9,-100.00,SW,225,2.0,2.0,87,0.00,,,0.00,995.0,meteohub,2013-04-17 17:11:00,
2013-04-17 07:17:00,71.2,66.9,-100.00,SW,225,0.0,2.0,86,0.00,,,0.00,995.0,meteohub,2013-04-17 17:17:00,
2013-04-17 07:22:00,71.4,67.1,-100.00,SW,225,2.0,2.0,86,0.00,,,0.00,995.0,meteohub,2013-04-17 17:22:00,
2013-04-17 07:27:00,71.6,67.1,-100.00,SW,225,0.0,2.0,86,0.00,,,0.00,995.0,meteohub,2013-04-17 17:27:00,
2013-04-17 07:32:00,71.6,67.1,-100.00,NW,315,0.0,2.0,86,0.00,,,0.00,995.0,meteohub,2013-04-17 17:32:00,
2013-04-17 07:37:00,71.6,67.1,-100.00,SW,225,0.0,2.0,86,0.00,,,0.00,995.0,meteohub,2013-04-17 17:37:00,
2013-04-17 07:42:00,71.8,67.3,-100.00,SW,225,0.0,1.0,86,0.00,,,0.00,995.0,meteohub,2013-04-17 17:42:00,
2013-04-17 07:47:00,71.8,67.3,-100.00,SW,225,0.0,1.0,86,0.00,,,0.00,995.0,meteohub,2013-04-17 17:47:00,
2013-04-17 07:52:00,72.0,67.8,-100.00,SW,225,0.0,1.0,87,0.00,,,0.00,995.0,meteohub,2013-04-17 17:52:00,
2013-04-17 07:57:00,72.0,67.8,-100.00,SW,225,2.0,2.0,87,0.00,,,0.00,995.0,meteohub,2013-04-17 17:57:00,
2013-04-17 08:02:00,72.3,68.2,-100.00,SW,225,1.0,2.0,87,0.00,,,0.00,995.0,meteohub,2013-04-17 18:02:00,
2013-04-17 08:07:00,73.0,68.5,-100.00,SW,225,1.0,2.0,86,0.00,,,0.00,995.0,meteohub,2013-04-17 18:07:00,
2013-04-17 08:12:00,73.8,69.3,-100.00,SW,225,2.0,2.0,86,0.00,,,0.00,995.0,meteohub,2013-04-17 18:12:00,
2013-04-17 08:17:00,74.5,69.6,-100.00,SW,225,2.0,2.0,85,0.00,,,0.00,995.0,meteohub,2013-04-17 18:17:00,
2013-04-17 08:22:00,75.0,69.8,-100.00,SW,225,2.0,2.0,84,0.00,,,0.00,995.0,meteohub,2013-04-17 18:22:00,
2013-04-17 08:27:00,75.4,69.4,-100.00,SW,225,1.0,2.0,82,0.00,,,0.00,995.0,meteohub,2013-04-17 18:27:00,
2013-04-17 08:33:00,75.7,69.4,-100.00,NW,315,1.0,2.0,81,0.00,,,0.00,995.0,meteohub,2013-04-17 18:33:00,
2013-04-17 08:38:00,76.1,69.4,-100.00,NW,315,1.0,2.0,80,0.00,,,0.00,995.0,meteohub,2013-04-17 18:38:00,
2013-04-17 08:43:00,76.3,69.6,-100.00,SE,135,2.0,2.0,80,0.00,,,0.00,995.0,meteohub,2013-04-17 18:43:00,
2013-04-17 08:48:00,76.3,69.3,-100.00,SW,225,0.0,2.0,79,0.00,,,0.00,995.0,meteohub,2013-04-17 18:48:00,
2013-04-17 08:53:00,76.6,69.3,-100.00,SE,135,3.0,3.0,78,0.00,,,0.00,995.0,meteohub,2013-04-17 18:53:00,
2013-04-17 08:58:00,77.0,69.3,-100.00,North,0,2.0,3.0,77,0.00,,,0.00,995.0,meteohub,2013-04-17 18:58:00,
2013-04-17 09:03:00,77.4,69.6,-100.00,South,180,1.0,3.0,77,0.00,,,0.00,995.0,meteohub,2013-04-17 19:03:00,
2013-04-17 09:09:00,77.5,69.8,-100.00,North,0,4.0,4.0,77,0.00,,,0.00,995.0,meteohub,2013-04-17 19:09:00,
2013-04-17 09:14:00,77.9,70.2,-100.00,NE,45,2.0,4.0,77,0.00,,,0.00,995.0,meteohub,2013-04-17 19:14:00,
2013-04-17 09:19:00,78.1,70.0,-100.00,North,0,3.0,4.0,76,0.00,,,0.00,995.0,meteohub,2013-04-17 19:19:00,
2013-04-17 09:24:00,78.3,70.0,-100.00,North,0,2.0,4.0,76,0.00,,,0.00,995.0,meteohub,2013-04-17 19:24:00,
2013-04-17 09:29:00,78.6,70.3,-100.00,NNE,23,3.0,4.0,76,0.00,,,0.00,995.0,meteohub,2013-04-17 19:29:00,
2013-04-17 09:34:00,79.2,70.5,-100.00,NW,315,4.0,4.0,75,0.00,,,0.00,995.0,meteohub,2013-04-17 19:34:00,
2013-04-17 09:39:00,79.5,70.5,-100.00,North,0,3.0,4.0,74,0.00,,,0.00,995.0,meteohub,2013-04-17 19:39:00,
2013-04-17 09:45:00,79.9,70.5,-100.00,East,90,2.0,6.0,73,0.00,,,0.00,995.0,meteohub,2013-04-17 19:45:00,
2013-04-17 09:50:00,80.1,70.2,-100.00,NE,45,3.0,6.0,72,0.00,,,0.00,995.0,meteohub,2013-04-17 19:50:00,
2013-04-17 09:55:00,80.1,70.2,-100.00,North,0,2.0,6.0,72,0.00,,,0.00,995.0,meteohub,2013-04-17 19:55:00,
2013-04-17 10:00:00,80.2,70.3,-100.00,North,0,3.0,4.0,72,0.00,,,0.00,995.0,meteohub,2013-04-17 20:00:00,
2013-04-17 10:05:00,80.4,70.5,-100.00,North,0,4.0,4.0,72,0.00,,,0.00,995.0,meteohub,2013-04-17 20:05:00,
2013-04-17 10:11:00,81.0,71.1,-100.00,NW,315,3.0,4.0,72,0.00,,,0.00,995.0,meteohub,2013-04-17 20:11:00,
2013-04-17 10:16:00,81.0,71.1,-100.00,NW,315,2.0,5.0,72,0.00,,,0.00,995.0,meteohub,2013-04-17 20:16:00,
2013-04-17 10:21:00,81.0,70.7,-100.00,NE,45,5.0,5.0,71,0.00,,,0.00,995.0,meteohub,2013-04-17 20:21:00,
2013-04-17 10:26:00,80.8,70.5,-100.00,North,0,4.0,5.0,71,0.00,,,0.00,995.0,meteohub,2013-04-17 20:26:00,
2013-04-17 10:31:00,80.8,70.9,-100.00,NNW,338,4.0,5.0,72,0.00,,,0.00,995.0,meteohub,2013-04-17 20:31:00,
2013-04-17 10:36:00,81.0,70.7,-100.00,North,0,3.0,5.0,71,0.00,,,0.00,996.0,meteohub,2013-04-17 20:36:00,
2013-04-17 10:41:00,81.0,71.1,-100.00,North,0,5.0,5.0,72,0.00,,,0.00,996.0,meteohub,2013-04-17 20:41:00,
2013-04-17 10:47:00,81.5,71.6,-100.00,North,0,5.0,6.0,72,0.00,,,0.00,996.0,meteohub,2013-04-17 20:47:00,
2013-04-17 10:52:00,81.5,71.2,-100.00,North,0,4.0,6.0,71,0.00,,,0.00,996.0,meteohub,2013-04-17 20:52:00,
2013-04-17 10:57:00,81.7,70.9,-100.00,NE,45,5.0,6.0,70,0.00,,,0.00,996.0,meteohub,2013-04-17 20:57:00,
2013-04-17 11:02:00,82.4,71.6,-100.00,North,0,3.0,7.0,70,0.00,,,0.00,996.0,meteohub,2013-04-17 21:02:00,
2013-04-17 11:07:00,82.6,70.9,-100.00,North,0,4.0,7.0,68,0.00,,,0.00,996.0,meteohub,2013-04-17 21:07:00,
2013-04-17 11:12:00,82.6,71.4,-100.00,NE,45,4.0,7.0,69,0.00,,,0.00,996.0,meteohub,2013-04-17 21:12:00,
2013-04-17 11:17:00,82.8,71.1,-100.00,East,90,4.0,8.0,68,0.00,,,0.00,996.0,meteohub,2013-04-17 21:17:00,
2013-04-17 11:22:00,83.3,72.1,-100.00,North,0,6.0,8.0,69,0.00,,,0.00,996.0,meteohub,2013-04-17 21:22:00,
2013-04-17 11:27:00,83.1,71.4,-100.00,NE,45,7.0,8.0,68,0.00,,,0.00,996.0,meteohub,2013-04-17 21:27:00,
2013-04-17 11:32:00,82.4,71.2,-100.00,North,0,5.0,8.0,69,0.00,,,0.00,996.0,meteohub,2013-04-17 21:32:00,
2013-04-17 11:37:00,82.4,71.2,-100.00,NE,45,8.0,8.0,69,0.00,,,0.00,996.0,meteohub,2013-04-17 21:37:00,
2013-04-17 11:42:00,82.8,72.0,-100.00,North,0,4.0,8.0,70,0.00,,,0.00,996.0,meteohub,2013-04-17 21:42:00,
2013-04-17 11:47:00,83.3,72.1,-100.00,NW,315,4.0,8.0,69,0.00,,,0.00,996.0,meteohub,2013-04-17 21:47:00,
2013-04-17 11:52:00,83.3,72.1,-100.00,North,0,4.0,8.0,69,0.00,,,0.00,996.0,meteohub,2013-04-17 21:52:00,
2013-04-17 11:57:00,83.1,72.0,-100.00,North,0,8.0,8.0,69,0.00,,,0.00,996.0,meteohub,2013-04-17 21:57:00,
2013-04-17 12:02:00,83.8,73.0,-100.00,NE,45,3.0,8.0,70,0.00,,,0.00,996.0,meteohub,2013-04-17 22:02:00,
2013-04-17 12:08:00,84.6,73.2,-100.00,NE,45,5.0,9.0,69,0.00,,,0.00,959.0,meteohub,2013-04-17 22:08:00,
2013-04-17 12:13:00,84.9,73.2,-100.00,North,0,5.0,9.0,68,0.00,,,0.00,959.0,meteohub,2013-04-17 22:13:00,
2013-04-17 12:18:00,84.0,72.3,-100.00,East,90,2.0,7.0,68,0.00,,,0.00,959.0,meteohub,2013-04-17 22:18:00,
2013-04-17 12:23:00,84.4,70.9,-100.00,SW,225,4.0,7.0,64,0.00,,,0.00,959.0,meteohub,2013-04-17 22:23:00,
2013-04-17 12:28:00,85.3,71.8,-100.00,SW,225,2.0,7.0,64,0.00,,,0.00,959.0,meteohub,2013-04-17 22:28:00,
2013-04-17 12:34:00,85.6,71.1,-100.00,SW,225,3.0,4.0,62,0.00,,,0.00,959.0,meteohub,2013-04-17 22:34:00,
2013-04-17 12:39:00,86.5,72.9,-100.00,SW,225,2.0,4.0,64,0.00,,,0.00,959.0,meteohub,2013-04-17 22:39:00,
2013-04-17 12:44:00,86.5,72.0,-100.00,NE,45,5.0,5.0,62,0.00,,,0.00,959.0,meteohub,2013-04-17 22:44:00,
2013-04-17 12:49:00,86.2,71.6,-100.00,SW,225,8.0,8.0,62,0.00,,,0.00,959.0,meteohub,2013-04-17 22:49:00,
2013-04-17 12:54:00,86.2,72.1,-100.00,East,90,2.0,13.0,63,0.00,,,0.00,959.0,meteohub,2013-04-17 22:54:00,
2013-04-17 12:59:00,85.6,71.6,-100.00,North,0,5.0,13.0,63,0.00,,,0.00,959.0,meteohub,2013-04-17 22:59:00,
2013-04-17 13:04:00,85.3,71.8,-100.00,North,0,4.0,13.0,64,0.00,,,0.00,959.0,meteohub,2013-04-17 23:04:00,
2013-04-17 13:09:00,85.3,72.1,-100.00,North,0,3.0,9.0,65,0.00,,,0.00,959.0,meteohub,2013-04-17 23:09:00,
2013-04-17 13:14:00,85.1,72.0,-100.00,East,90,3.0,6.0,65,0.00,,,0.00,959.0,meteohub,2013-04-17 23:14:00,
2013-04-17 13:19:00,84.6,72.0,-100.00,NE,45,6.0,6.0,66,0.00,,,0.00,959.0,meteohub,2013-04-17 23:19:00,
2013-04-17 13:25:00,84.0,71.4,-100.00,North,0,4.0,5.0,66,0.00,,,0.00,959.0,meteohub,2013-04-17 23:25:00,
2013-04-17 13:30:00,83.1,71.1,-100.00,NE,45,4.0,7.0,67,0.00,,,0.00,959.0,meteohub,2013-04-17 23:30:00,
2013-04-17 13:35:00,82.8,71.6,-100.00,SW,225,2.0,7.0,69,0.00,,,0.00,959.0,meteohub,2013-04-17 23:35:00,
2013-04-17 13:40:00,82.9,71.8,-100.00,North,0,6.0,7.0,69,0.00,,,0.00,959.0,meteohub,2013-04-17 23:40:00,
2013-04-17 13:45:00,83.3,72.1,-100.00,NE,45,3.0,8.0,69,0.00,,,0.00,959.0,meteohub,2013-04-17 23:45:00,
2013-04-17 13:50:00,82.9,71.2,-100.00,North,0,3.0,8.0,68,0.00,,,0.00,959.0,meteohub,2013-04-17 23:50:00,
2013-04-17 13:55:00,82.2,71.1,-100.00,SW,225,2.0,8.0,69,0.00,,,0.00,959.0,meteohub,2013-04-17 23:55:00,
2013-04-17 14:00:00,82.0,71.8,-100.00,NE,45,4.0,4.0,71,0.00,,,0.00,959.0,meteohub,2013-04-18 00:00:00,
2013-04-17 14:05:00,83.1,72.7,-100.00,North,0,4.0,6.0,71,0.00,,,0.00,996.0,meteohub,2013-04-18 00:05:00,
2013-04-17 14:11:00,83.5,72.7,-100.00,East,90,2.0,6.0,70,0.00,,,0.00,996.0,meteohub,2013-04-18 00:11:00,
2013-04-17 14:16:00,83.5,71.8,-100.00,North,0,7.0,7.0,68,0.00,,,0.00,996.0,meteohub,2013-04-18 00:16:00,
2013-04-17 14:21:00,84.6,71.1,-100.00,SW,225,7.0,12.0,64,0.00,,,0.00,996.0,meteohub,2013-04-18 00:21:00,
2013-04-17 14:26:00,84.7,70.3,-100.00,SW,225,4.0,12.0,62,0.00,,,0.00,996.0,meteohub,2013-04-18 00:26:00,
2013-04-17 14:31:00,84.9,70.5,-100.00,SW,225,3.0,12.0,62,0.00,,,0.00,996.0,meteohub,2013-04-18 00:31:00,
2013-04-17 14:36:00,85.5,70.5,-100.00,SW,225,6.0,8.0,61,0.00,,,0.00,996.0,meteohub,2013-04-18 00:36:00,
2013-04-17 14:42:00,86.0,70.0,-100.00,SW,225,5.0,9.0,59,0.00,,,0.00,996.0,meteohub,2013-04-18 00:42:00,
2013-04-17 14:47:00,86.5,70.0,-100.00,SW,225,2.0,9.0,58,0.00,,,0.00,996.0,meteohub,2013-04-18 00:47:00,
2013-04-17 14:52:00,86.5,70.0,-100.00,SW,225,7.0,7.0,58,0.00,,,0.00,996.0,meteohub,2013-04-18 00:52:00,
2013-04-17 14:57:00,86.5,70.0,-100.00,West,270,3.0,7.0,58,0.00,,,0.00,996.0,meteohub,2013-04-18 00:57:00,
2013-04-17 15:02:00,86.5,70.0,-100.00,SW,225,3.0,7.0,58,0.00,,,0.00,996.0,meteohub,2013-04-18 01:02:00,
2013-04-17 15:07:00,86.0,68.9,-100.00,SW,225,4.0,7.0,57,0.00,,,0.00,996.0,meteohub,2013-04-18 01:07:00,
2013-04-17 15:12:00,85.6,69.1,-100.00,SW,225,2.0,8.0,58,0.00,,,0.00,996.0,meteohub,2013-04-18 01:12:00,
2013-04-17 15:17:00,85.5,69.1,-100.00,SW,225,3.0,8.0,58,0.00,,,0.00,996.0,meteohub,2013-04-18 01:17:00,
2013-04-17 15:22:00,85.5,69.1,-100.00,SW,225,3.0,8.0,58,0.00,,,0.00,996.0,meteohub,2013-04-18 01:22:00,
2013-04-17 15:27:00,84.7,68.4,-100.00,SW,225,5.0,10.0,58,0.00,,,0.00,996.0,meteohub,2013-04-18 01:27:00,
2013-04-17 15:32:00,84.6,68.7,-100.00,SW,225,8.0,10.0,59,0.00,,,0.00,996.0,meteohub,2013-04-18 01:32:00,
2013-04-17 15:37:00,83.8,68.0,-100.00,SW,225,8.0,10.0,59,0.00,,,0.00,996.0,meteohub,2013-04-18 01:37:00,
2013-04-17 15:42:00,83.3,68.0,-100.00,South,180,6.0,11.0,60,0.00,,,0.00,996.0,meteohub,2013-04-18 01:42:00,
2013-04-17 15:47:00,83.5,68.5,-100.00,West,270,5.0,11.0,61,0.00,,,0.00,996.0,meteohub,2013-04-18 01:47:00,
2013-04-17 15:52:00,83.5,68.2,-100.00,SW,225,5.0,11.0,60,0.00,,,0.00,996.0,meteohub,2013-04-18 01:52:00,
2013-04-17 15:57:00,83.5,68.5,-100.00,SW,225,5.0,11.0,61,0.00,,,0.00,996.0,meteohub,2013-04-18 01:57:00,
2013-04-17 16:03:00,83.8,68.0,-100.00,SW,225,6.0,8.0,59,0.00,,,0.00,996.0,meteohub,2013-04-18 02:03:00,
2013-04-17 16:08:00,83.8,67.5,-100.00,SW,225,7.0,8.0,58,0.00,,,0.00,996.0,meteohub,2013-04-18 02:08:00,
2013-04-17 16:13:00,83.7,66.7,-100.00,SW,225,4.0,8.0,57,0.00,,,0.00,996.0,meteohub,2013-04-18 02:13:00,
2013-04-17 16:18:00,83.5,65.7,-100.00,SW,225,6.0,8.0,55,0.00,,,0.00,996.0,meteohub,2013-04-18 02:18:00,
2013-04-17 16:23:00,83.5,65.7,-100.00,South,180,5.0,8.0,55,0.00,,,0.00,996.0,meteohub,2013-04-18 02:23:00,
2013-04-17 16:28:00,83.3,65.5,-100.00,SW,225,8.0,8.0,55,0.00,,,0.00,996.0,meteohub,2013-04-18 02:28:00,
2013-04-17 16:33:00,83.5,65.1,-100.00,SW,225,7.0,8.0,54,0.00,,,0.00,996.0,meteohub,2013-04-18 02:33:00,
2013-04-17 16:38:00,83.5,65.1,-100.00,SW,225,5.0,10.0,54,0.00,,,0.00,996.0,meteohub,2013-04-18 02:38:00,
2013-04-17 16:43:00,83.1,64.8,-100.00,SW,225,5.0,10.0,54,0.00,,,0.00,996.0,meteohub,2013-04-18 02:43:00,
2013-04-17 16:49:00,82.8,64.4,-100.00,SW,225,8.0,10.0,54,0.00,,,0.00,996.0,meteohub,2013-04-18 02:49:00,
2013-04-17 16:54:00,82.6,63.7,-100.00,SW,225,3.0,7.0,53,0.00,,,0.00,996.0,meteohub,2013-04-18 02:54:00,
2013-04-17 16:59:00,82.8,63.9,-100.00,SW,225,11.0,11.0,53,0.00,,,0.00,996.0,meteohub,2013-04-18 02:59:00,
2013-04-17 17:04:00,82.9,64.0,-100.00,SW,225,3.0,11.0,53,0.00,,,0.00,996.0,meteohub,2013-04-18 03:04:00,
2013-04-17 17:09:00,82.6,63.1,-100.00,West,270,4.0,11.0,52,0.00,,,0.00,996.0,meteohub,2013-04-18 03:09:00,
2013-04-17 17:14:00,82.2,62.2,-100.00,SW,225,8.0,11.0,51,0.00,,,0.00,996.0,meteohub,2013-04-18 03:14:00,
2013-04-17 17:19:00,82.2,62.8,-100.00,SW,225,5.0,8.0,52,0.00,,,0.00,996.0,meteohub,2013-04-18 03:19:00,
2013-04-17 17:24:00,81.9,62.4,-100.00,SW,225,6.0,8.0,52,0.00,,,0.00,996.0,meteohub,2013-04-18 03:24:00,
2013-04-17 17:29:00,81.5,62.2,-100.00,SW,225,7.0,8.0,52,0.00,,,0.00,996.0,meteohub,2013-04-18 03:29:00,
2013-04-17 17:34:00,81.7,63.5,-100.00,SW,225,4.0,8.0,54,0.00,,,0.00,996.0,meteohub,2013-04-18 03:34:00,
2013-04-17 17:40:00,82.2,66.4,-100.00,North,0,4.0,8.0,59,0.00,,,0.00,996.0,meteohub,2013-04-18 03:40:00,
2013-04-17 17:45:00,83.1,68.4,-100.00,SW,225,2.0,7.0,61,0.00,,,0.00,996.0,meteohub,2013-04-18 03:45:00,
2013-04-17 17:50:00,82.8,64.4,-100.00,SW,225,4.0,4.0,54,0.00,,,0.00,996.0,meteohub,2013-04-18 03:50:00,
2013-04-17 17:55:00,81.9,63.5,-100.00,SW,225,2.0,8.0,54,0.00,,,0.00,996.0,meteohub,2013-04-18 03:55:00,
2013-04-17 18:00:00,83.3,64.4,-100.00,WSW,248,3.0,8.0,53,0.00,,,0.00,996.0,meteohub,2013-04-18 04:00:00,
2013-04-17 18:01:00,83.3,64.4,-100.00,WSW,248,3.0,8.0,53,0.00,,,0.00,996.0,meteohub,2013-04-18 04:01:00,
2013-04-17 18:02:00,81.3,62.6,-100.00,NW,315,2.0,8.0,53,0.00,,,0.00,996.0,meteohub,2013-04-18 04:02:00,
2013-04-17 18:05:00,81.3,62.6,-100.00,West,270,2.0,8.0,53,0.00,,,0.00,995.0,meteohub,2013-04-18 04:05:00,
2013-04-17 18:10:00,81.0,62.8,-100.00,SW,225,2.0,4.0,54,0.00,,,0.00,995.0,meteohub,2013-04-18 04:10:00,
2013-04-17 18:15:00,80.8,62.6,-100.00,SW,225,4.0,4.0,54,0.00,,,0.00,995.0,meteohub,2013-04-18 04:15:00,
2013-04-17 18:20:00,80.2,61.5,-100.00,SW,225,4.0,4.0,53,0.00,,,0.00,995.0,meteohub,2013-04-18 04:20:00,
2013-04-17 18:25:00,79.7,61.0,-100.00,SW,225,4.0,7.0,53,0.00,,,0.00,995.0,meteohub,2013-04-18 04:25:00,
2013-04-17 18:31:00,79.2,61.2,-100.00,South,180,2.0,7.0,54,0.00,,,0.00,995.0,meteohub,2013-04-18 04:31:00,
2013-04-17 18:36:00,78.8,61.3,-100.00,West,270,2.0,7.0,55,0.00,,,0.00,995.0,meteohub,2013-04-18 04:36:00,
2013-04-17 18:41:00,78.4,60.4,-100.00,SW,225,6.0,6.0,54,0.00,,,0.00,995.0,meteohub,2013-04-18 04:41:00,
2013-04-17 18:46:00,78.1,60.1,-100.00,SW,225,4.0,7.0,54,0.00,,,0.00,995.0,meteohub,2013-04-18 04:46:00,
2013-04-17 18:51:00,77.7,60.3,-100.00,SW,225,3.0,8.0,55,0.00,,,0.00,995.0,meteohub,2013-04-18 04:51:00,
2013-04-17 18:57:00,77.2,60.3,-100.00,SW,225,5.0,8.0,56,0.00,,,0.00,995.0,meteohub,2013-04-18 04:57:00,
2013-04-17 19:02:00,77.2,59.7,-100.00,South,180,4.0,11.0,55,0.00,,,0.00,995.0,meteohub,2013-04-18 05:02:00,
2013-04-17 19:07:00,77.2,59.7,-100.00,SW,225,4.0,11.0,55,0.00,,,0.00,958.0,meteohub,2013-04-18 05:07:00,
2013-04-17 19:12:00,77.0,60.1,-100.00,SW,225,8.0,11.0,56,0.00,,,0.00,958.0,meteohub,2013-04-18 05:12:00,
2013-04-17 19:17:00,77.0,60.1,-100.00,SW,225,5.0,8.0,56,0.00,,,0.00,958.0,meteohub,2013-04-18 05:17:00,
2013-04-17 19:22:00,76.8,59.9,-100.00,SW,225,7.0,8.0,56,0.00,,,0.00,958.0,meteohub,2013-04-18 05:22:00,
2013-04-17 19:27:00,76.8,59.9,-100.00,SW,225,4.0,8.0,56,0.00,,,0.00,958.0,meteohub,2013-04-18 05:27:00,
2013-04-17 19:32:00,76.6,60.3,-100.00,SW,225,3.0,10.0,57,0.00,,,0.00,958.0,meteohub,2013-04-18 05:32:00,
2013-04-17 19:37:00,76.6,60.8,-100.00,SW,225,4.0,10.0,58,0.00,,,0.00,994.0,meteohub,2013-04-18 05:37:00,
2013-04-17 19:42:00,76.8,60.4,-100.00,SW,225,4.0,8.0,57,0.00,,,0.00,994.0,meteohub,2013-04-18 05:42:00,
2013-04-17 19:47:00,76.8,60.4,-100.00,SW,225,4.0,8.0,57,0.00,,,0.00,994.0,meteohub,2013-04-18 05:47:00,
2013-04-17 19:52:00,76.6,60.3,-100.00,SW,225,4.0,8.0,57,0.00,,,0.00,994.0,meteohub,2013-04-18 05:52:00,
2013-04-17 19:57:00,76.6,60.3,-100.00,SW,225,4.0,8.0,57,0.00,,,0.00,994.0,meteohub,2013-04-18 05:57:00,
2013-04-17 20:02:00,76.5,60.1,-100.00,SW,225,7.0,7.0,57,0.00,,,0.00,994.0,meteohub,2013-04-18 06:02:00,
2013-04-17 20:07:00,76.5,60.1,-100.00,SW,225,3.0,7.0,57,0.00,,,0.00,994.0,meteohub,2013-04-18 06:07:00,
2013-04-17 20:12:00,76.5,60.6,-100.00,SW,225,5.0,7.0,58,0.00,,,0.00,994.0,meteohub,2013-04-18 06:12:00,
2013-04-17 20:17:00,76.3,61.0,-100.00,SW,225,4.0,7.0,59,0.00,,,0.00,994.0,meteohub,2013-04-18 06:17:00,
2013-04-17 20:22:00,76.3,61.0,-100.00,SW,225,2.0,7.0,59,0.00,,,0.00,994.0,meteohub,2013-04-18 06:22:00,
2013-04-17 20:27:00,76.1,60.8,-100.00,West,270,4.0,7.0,59,0.00,,,0.00,994.0,meteohub,2013-04-18 06:27:00,
2013-04-17 20:32:00,76.1,60.8,-100.00,South,180,4.0,6.0,59,0.00,,,0.00,994.0,meteohub,2013-04-18 06:32:00,
2013-04-17 20:37:00,75.9,61.0,-100.00,SW,225,4.0,4.0,60,0.00,,,0.00,994.0,meteohub,2013-04-18 06:37:00,
2013-04-17 20:42:00,75.9,61.0,-100.00,SW,225,2.0,7.0,60,0.00,,,0.00,994.0,meteohub,2013-04-18 06:42:00,
2013-04-17 20:47:00,75.6,61.7,-100.00,SW,225,2.0,7.0,62,0.00,,,0.00,994.0,meteohub,2013-04-18 06:47:00,
2013-04-17 20:52:00,75.2,61.3,-100.00,West,270,3.0,7.0,62,0.00,,,0.00,994.0,meteohub,2013-04-18 06:52:00,
2013-04-17 20:57:00,75.4,61.0,-100.00,SW,225,2.0,5.0,61,0.00,,,0.00,994.0,meteohub,2013-04-18 06:57:00,
2013-04-17 21:02:00,75.6,60.6,-100.00,SW,225,6.0,6.0,60,0.00,,,0.00,994.0,meteohub,2013-04-18 07:02:00,
2013-04-17 21:07:00,75.6,61.2,-100.00,SW,225,3.0,6.0,61,0.00,,,0.00,994.0,meteohub,2013-04-18 07:07:00,
2013-04-17 21:12:00,75.2,60.8,-100.00,SW,225,2.0,6.0,61,0.00,,,0.00,994.0,meteohub,2013-04-18 07:12:00,
2013-04-17 21:17:00,75.2,61.3,-100.00,SW,225,4.0,6.0,62,0.00,,,0.00,994.0,meteohub,2013-04-18 07:17:00,
2013-04-17 21:22:00,75.0,61.2,-100.00,SW,225,2.0,4.0,62,0.00,,,0.00,994.0,meteohub,2013-04-18 07:22:00,
2013-04-17 21:27:00,74.8,61.3,-100.00,SW,225,2.0,4.0,63,0.00,,,0.00,994.0,meteohub,2013-04-18 07:27:00,
2013-04-17 21:32:00,75.0,61.2,-100.00,SW,225,2.0,4.0,62,0.00,,,0.00,994.0,meteohub,2013-04-18 07:32:00,
2013-04-17 21:37:00,75.2,61.3,-100.00,SW,225,4.0,4.0,62,0.00,,,0.00,958.0,meteohub,2013-04-18 07:37:00,
2013-04-17 21:42:00,75.2,61.3,-100.00,SW,225,1.0,4.0,62,0.00,,,0.00,958.0,meteohub,2013-04-18 07:42:00,
2013-04-17 21:47:00,75.2,61.3,-100.00,SW,225,1.0,4.0,62,0.00,,,0.00,958.0,meteohub,2013-04-18 07:47:00,
2013-04-17 21:52:00,75.2,61.7,-100.00,SW,225,1.0,4.0,63,0.00,,,0.00,958.0,meteohub,2013-04-18 07:52:00,
2013-04-17 21:57:00,75.0,62.1,-100.00,SW,225,1.0,2.0,64,0.00,,,0.00,958.0,meteohub,2013-04-18 07:57:00,
2013-04-17 22:02:00,75.0,62.1,-100.00,SW,225,2.0,3.0,64,0.00,,,0.00,958.0,meteohub,2013-04-18 08:02:00,
2013-04-17 22:07:00,75.4,61.0,-100.00,SW,225,3.0,3.0,61,0.00,,,0.00,958.0,meteohub,2013-04-18 08:07:00,
2013-04-17 22:12:00,75.6,61.2,-100.00,South,180,2.0,3.0,61,0.00,,,0.00,958.0,meteohub,2013-04-18 08:12:00,
2013-04-17 22:17:00,75.4,61.0,-100.00,SW,225,3.0,3.0,61,0.00,,,0.00,958.0,meteohub,2013-04-18 08:17:00,
2013-04-17 22:22:00,74.7,61.7,-100.00,SW,225,2.0,3.0,64,0.00,,,0.00,958.0,meteohub,2013-04-18 08:22:00,
2013-04-17 22:27:00,74.3,61.7,-100.00,SW,225,2.0,3.0,65,0.00,,,0.00,958.0,meteohub,2013-04-18 08:27:00,
2013-04-17 22:32:00,74.1,62.1,-100.00,SW,225,3.0,4.0,66,0.00,,,0.00,958.0,meteohub,2013-04-18 08:32:00,
2013-04-17 22:37:00,73.9,62.2,-100.00,SW,225,2.0,4.0,67,0.00,,,0.00,958.0,meteohub,2013-04-18 08:37:00,
2013-04-17 22:42:00,73.8,62.1,-100.00,SW,225,2.0,4.0,67,0.00,,,0.00,958.0,meteohub,2013-04-18 08:42:00,
2013-04-17 22:47:00,73.8,61.7,-100.00,South,180,2.0,4.0,66,0.00,,,0.00,958.0,meteohub,2013-04-18 08:47:00,
2013-04-17 22:52:00,73.6,61.5,-100.00,SW,225,2.0,3.0,66,0.00,,,0.00,958.0,meteohub,2013-04-18 08:52:00,
2013-04-17 22:57:00,73.6,61.5,-100.00,SW,225,2.0,3.0,66,0.00,,,0.00,958.0,meteohub,2013-04-18 08:57:00,
2013-04-17 23:02:00,73.4,62.2,-100.00,South,180,2.0,3.0,68,0.00,,,0.00,958.0,meteohub,2013-04-18 09:02:00,
2013-04-17 23:07:00,73.4,62.2,-100.00,SW,225,2.0,3.0,68,0.00,,,0.00,958.0,meteohub,2013-04-18 09:07:00,
2013-04-17 23:12:00,73.4,62.6,-100.00,South,180,3.0,3.0,69,0.00,,,0.00,958.0,meteohub,2013-04-18 09:12:00,
2013-04-17 23:17:00,73.6,62.4,-100.00,SE,135,3.0,3.0,68,0.00,,,0.00,958.0,meteohub,2013-04-18 09:17:00,
2013-04-17 23:22:00,73.9,62.8,-100.00,SW,225,2.0,3.0,68,0.00,,,0.00,958.0,meteohub,2013-04-18 09:22:00,
2013-04-17 23:27:00,73.9,63.1,-100.00,SW,225,2.0,3.0,69,0.00,,,0.00,958.0,meteohub,2013-04-18 09:27:00,
2013-04-17 23:32:00,73.8,63.0,-100.00,South,180,2.0,4.0,69,0.00,,,0.00,958.0,meteohub,2013-04-18 09:32:00,
2013-04-17 23:37:00,73.8,63.0,-100.00,SW,225,3.0,4.0,69,0.00,,,0.00,958.0,meteohub,2013-04-18 09:37:00,
2013-04-17 23:42:00,73.8,63.0,-100.00,SW,225,2.0,4.0,69,0.00,,,0.00,958.0,meteohub,2013-04-18 09:42:00,
2013-04-17 23:47:00,74.1,63.3,-100.00,SW,225,2.0,4.0,69,0.00,,,0.00,958.0,meteohub,2013-04-18 09:47:00,
2013-04-17 23:52:00,74.1,63.3,-100.00,South,180,2.0,4.0,69,0.00,,,0.00,958.0,meteohub,2013-04-18 09:52:00,
2013-04-17 23:57:00,74.1,63.7,-100.00,SW,225,5.0,6.0,70,0.00,,,0.00,958.0,meteohub,2013-04-18 09:57:00,